Content
SEND FEEDBACK

Daily
Averages
Monthly
Summary
United States of America

ROCK HILL, NEW YORK


Home > North America > United States > New York
Elevation: 384 meters     Latitude: 41 35N     Longitude: 074 37W

WEATHER
 
SELECT A DAY
Number of Records: 443,161;   Date Range: 1/1/95 - 7/20/14
 
SHARE

PRINT THIS DATA

[ ← Previous Day ]
WEATHER ALMANAC - 16 DECEMBER, 2013
[ Next Day → ]
[ °F ]   °C
Weather ElementAverageHighLow
Temperature-8.7 °C-4 °C (12:35 am)-16 °C (11:35 pm)
Dewpoint-15.3 °C-9 °C (12:55 am)-19 °C (9:55 pm)
Humidity60.2 %79 % (4:35 am)49 % (2:35 pm)
Barometer1014.9 hPa1020 hPa (8:15 pm)1006.8 hPa (12:35 am)
Wind Speed14.6 km/h33.3 km/h (12:55 am)
Wind Gust50.1 km/h (12:55 am)
Weather ElementAverage
Visibility15 km
Wind DirectionWSW (238.2 °)

Weather ElementTotal
Precipitation---
Heating Degree Days28.3 (Base 18.3)
Averaged from 71 records on 16 December, 2013
WEATHER CONDITIONS BREAKOUT
WIND DIRECTION BREAKOUT
WEATHER BY HOUR - 16 DECEMBER, 2013
[ °F ]   °C
Local TimeTemperatureDewpointHumidityBarometerVisibilityWind DirectionWind SpeedGust SpeedPrecipitationEventsConditions
12:35 AM-4 °C-10 °C64 %1006.8 hPa16.1 kmWest (270°)22.2 km/hOvercast
12:55 AM-5 °C-9 °C74 %1007.5 hPa2.4 kmWNW (290°)33.3 km/h50.1 km/hOvercast
1:15 AM-5 °C-11 °C63 %1007.5 hPa16.1 kmWNW (290°)29.6 km/h46.3 km/hScattered Clouds
1:35 AM-6 °C-13 °C58 %1007.8 hPa16.1 kmWest (280°)31.5 km/h46.3 km/hClear
1:55 AM-6 °C-14 °C54 %1008.1 hPa16.1 kmWNW (290°)25.9 km/h40.7 km/hClear
2:15 AM-6 °C-14 °C54 %1008.5 hPa16.1 kmWest (270°)24.1 km/h37 km/hClear
2:35 AM-6 °C-14 °C54 %1008.8 hPa16.1 kmWest (280°)20.4 km/h40.7 km/hScattered Clouds
2:55 AM-6 °C-14 °C54 %1009.1 hPa16.1 kmWest (280°)18.5 km/h33.3 km/hPartly Cloudy
3:15 AM-7 °C-13 °C63 %1009.5 hPa16.1 kmWNW (290°)25.9 km/hMostly Cloudy
3:35 AM-7 °C-12 °C68 %1009.5 hPa8 kmWest (270°)22.2 km/h31.5 km/hMostly Cloudy
3:55 AM-7 °C-11 °C74 %1009.8 hPa6.4 kmWest (270°)20.4 km/h27.8 km/hMostly Cloudy
4:15 AM-7 °C-11 °C74 %1010.2 hPa4.8 kmWest (280°)20.4 km/h29.6 km/hOvercast
4:35 AM-8 °C-11 °C79 %1010.5 hPa8 kmWNW (300°)16.7 km/h29.6 km/hMostly Cloudy
4:55 AM-8 °C-13 °C68 %1010.8 hPa12.9 kmWNW (300°)24.1 km/h37 km/hMostly Cloudy
5:15 AM-8 °C-13 °C68 %1011.2 hPa16.1 kmWest (280°)18.5 km/h31.5 km/hMostly Cloudy
5:35 AM-8 °C-15 °C58 %1011.5 hPa16.1 kmWNW (290°)20.4 km/h38.9 km/hPartly Cloudy
5:55 AM-8 °C-15 °C58 %1011.9 hPa16.1 kmWest (280°)25.9 km/h35.2 km/hClear
6:15 AM-9 °C-16 °C58 %1012.2 hPa16.1 kmWNW (290°)16.7 km/h27.8 km/hClear
6:35 AM-9 °C-16 °C58 %1012.5 hPa16.1 kmWest (280°)18.5 km/h29.6 km/hClear
6:55 AM-9 °C-16 °C58 %1012.5 hPa16.1 kmWNW (290°)13 km/hClear
7:15 AM-9 °C-16 °C58 %1013.2 hPa16.1 kmWest (280°)13 km/hClear
7:35 AM-10 °C-17 °C57 %1013.5 hPa16.1 kmWest (280°)13 km/hClear
7:55 AM-9 °C-16 °C58 %1013.9 hPa16.1 kmWest (270°)11.1 km/hClear
8:15 AM-9 °C-16 °C58 %1014.2 hPa16.1 kmWest (270°)16.7 km/hClear
8:35 AM-9 °C-16 °C58 %1014.6 hPa16.1 kmWest (270°)14.8 km/hClear
8:55 AM-9 °C-15 °C62 %1014.6 hPa16.1 kmWest (270°)20.4 km/h27.8 km/hClear
9:15 AM-8 °C-14 °C63 %1014.9 hPa16.1 kmWNW (290°)14.8 km/hClear
9:35 AM-8 °C-14 °C63 %1015.2 hPa16.1 kmWNW (290°)14.8 km/hClear
9:55 AM-8 °C-14 °C63 %1015.6 hPa16.1 kmWest (270°)11.1 km/hScattered Clouds
10:15 AM-8 °C-14 °C63 %1015.6 hPa16.1 kmWNW (290°)16.7 km/h25.9 km/hMostly Cloudy
10:35 AM-7 °C-14 °C58 %1015.6 hPa16.1 kmWNW (290°)14.8 km/h25.9 km/hOvercast
10:55 AM-7 °C-15 °C54 %1015.2 hPa16.1 kmWNW (290°)16.7 km/h29.6 km/hOvercast
11:15 AM-7 °C-15 °C54 %1015.2 hPa16.1 kmWest (280°)22.2 km/h35.2 km/hOvercast
11:35 AM-7 °C-15 °C54 %1015.2 hPa16.1 kmWest (280°)20.4 km/h29.6 km/hOvercast
11:55 AM-7 °C-15 °C54 %1015.2 hPa2.9 kmWNW (290°)14.8 km/h31.5 km/hOvercast
12:15 PM-7 °C-15 °C54 %1015.2 hPa16.1 kmWNW (290°)20.4 km/h33.3 km/hMostly Cloudy
12:35 PM-7 °C-15 °C54 %1015.2 hPa16.1 kmWNW (290°)13 km/hOvercast
12:55 PM-7 °C-14 °C58 %1015.2 hPa16.1 kmWNW (300°)27.8 km/h33.3 km/hOvercast
1:15 PM-7 °C-14 °C58 %1015.2 hPa16.1 kmWNW (290°)22.2 km/h31.5 km/hOvercast
1:35 PM-7 °C-15 °C54 %1015.2 hPa4.8 kmWNW (290°)24.1 km/h37 km/hOvercast
1:55 PM-7 °C-14 °C58 %1015.6 hPa16.1 kmWest (280°)16.7 km/h29.6 km/hOvercast
2:15 PM-7 °C-14 °C58 %1015.6 hPa16.1 kmNW (310°)18.5 km/hMostly Cloudy
2:35 PM-7 °C-16 °C49 %1015.6 hPa16.1 kmNW (310°)20.4 km/h29.6 km/hMostly Cloudy
2:55 PM-7 °C-15 °C54 %1015.9 hPa16.1 kmWNW (290°)22.2 km/h27.8 km/hScattered Clouds
3:15 PM-7 °C-15 °C54 %1016.3 hPa16.1 kmNW (310°)24.1 km/h35.2 km/hPartly Cloudy
3:35 PM-7 °C-16 °C49 %1016.6 hPa16.1 kmNW (310°)20.4 km/h31.5 km/hPartly Cloudy
3:55 PM-7 °C-16 °C49 %1016.6 hPa16.1 kmWNW (290°)13 km/hClear
4:15 PM-7 °C-16 °C49 %1016.9 hPa16.1 kmWest (280°)9.3 km/hPartly Cloudy
4:35 PM-7 °C-16 °C49 %1016.9 hPa16.1 kmWest (280°)13 km/hClear
4:55 PM-8 °C-17 °C49 %1016.9 hPa16.1 kmWNW (290°)9.3 km/hClear
5:15 PM-8 °C-17 °C49 %1017.6 hPa16.1 kmWest (260°)5.6 km/hPartly Cloudy
5:35 PM-9 °C-16 °C58 %1017.6 hPa16.1 kmWest (270°)9.3 km/hPartly Cloudy
5:55 PM-9 °C-17 °C53 %1017.9 hPa16.1 kmWest (270°)7.4 km/hClear
6:15 PM-9 °C-17 °C53 %1018.6 hPa16.1 kmWSW (250°)9.3 km/hPartly Cloudy
6:35 PM-9 °C-17 °C53 %1019 hPa16.1 kmWSW (250°)7.4 km/hPartly Cloudy
6:55 PM-9 °C-17 °C53 %1019 hPa16.1 kmWest (260°)7.4 km/hScattered Clouds
7:15 PM-10 °C-17 °C57 %1019 hPa16.1 kmWest (260°)5.6 km/hPartly Cloudy
7:35 PM-11 °C-18 °C57 %1019.3 hPa16.1 kmWest (260°)9.3 km/hClear
7:55 PM-11 °C-17 °C62 %1019.6 hPa16.1 kmWest (270°)9.3 km/hClear
8:15 PM-11 °C-18 °C57 %1020 hPa16.1 kmCalmClear
8:35 PM-12 °C-17 °C67 %1020 hPa16.1 kmWest (270°)5.6 km/hClear
8:55 PM-13 °C-18 °C67 %1020 hPa16.1 kmCalmClear
9:15 PM-13 °C-17 °C73 %1020 hPa16.1 kmCalmClear
9:35 PM-13 °C-17 °C73 %1020 hPa16.1 kmCalmClear
9:55 PM-14 °C-19 °C67 %1020 hPa16.1 kmCalmClear
10:15 PM-14 °C-18 °C72 %1019.6 hPa16.1 kmCalmClear
10:35 PM-14 °C-18 °C72 %1019.6 hPa16.1 kmCalmClear
10:55 PM-14 °C-18 °C72 %1020 hPa16.1 kmCalmClear
11:15 PM-14 °C-18 °C72 %1020 hPa16.1 kmCalmClear
11:35 PM-16 °C-19 °C78 %1020 hPa16.1 kmCalmClear
11:55 PM-15 °C-18 °C78 %1020 hPa16.1 kmCalmClear
Hourly data recorded from KMSV, located 0 kilometers away from Rock Hill, New York







STORIES FROM OUR PARTNERS